Weather History for KANJ - November, 2013

Change the Weather History Date:

Saturday, November 23, 2013

  Actual Average Record
Temperature  
Mean Temperature 18 °F 31 °F  
Max Temperature 27 °F 37 °F 59 °F (1931)
Min Temperature 8 °F 26 °F -5 °F (1956)
Degree Days  
Heating Degree Days 47 34  
Month to date heating degree days 664 678  
Since 1 July heating degree days 1582 1683  
Moisture  
Dew Point 10 °F    
Average Humidity 71    
Maximum Humidity 88    
Minimum Humidity 53    
Precipitation  
Precipitation 0.10 in 0.11 in 1.48 in (2003)
Month to date precipitation 5.97 2.60  
Year to date precipitation 45.61 29.39  
Snow  
Snow 1.30 in 0.70 in 6.80 in (1950)
Month to date snowfall 10.0 9.9  
Since 1 July snowfall 16.7 11.5  
Snow Depth 1.00 in    
Sea Level Pressure  
Sea Level Pressure 30.26 in    
Wind  
Wind Speed 15 mph (NNW)    
Max Wind Speed 26 mph    
Max Gust Speed 40 mph    
Visibility 5 miles    
Events Fog , Snow    
T = Trace of Precipitation, MM = Missing Value Source: NWS Daily Summary

Daily Weather History Graph

Daily Weather History Graph

Search for Another Location

Airport or City:

Trip Planner

Search our weather history database for the weather conditions in past years. The results will help you decide how hot, cold, wet, or windy it might be!

Date:

Astronomy

Nov. 23, 2013 Rise Set
Actual Time 7:50 AM EST 4:56 PM EST
Civil Twilight 7:17 AM EST 5:30 PM EST
Nautical Twilight 6:39 AM EST 6:07 PM EST
Astronomical Twilight 6:03 AM EST 6:43 PM EST
Moon 10:32 PM EST (11/23) 12:00 PM EST (11/23)
Length of Visible Light 10h 13m
Length of Day
9h 06m
Waning Gibbous, 70% of the Moon is Illuminated
Nov 23
Waning Gibbous
Nov 25
Last Quarter
Dec 2
New
Dec 9
First Quarter
Dec 17
Full

Hourly Weather History & Observations

Time (EST) Temp. Windchill Dew Point Humidity Pressure Visibility Wind Dir Wind Speed Gust Speed Precip Events Conditions
12:03 AM 26.1 °F 14.5 °F 23.0 °F 88% 30.14 in 0.8 mi WSW 13.8 mph 20.7 mph 0.00 in Snow Light Snow
12:45 AM 26.1 °F 14.5 °F 21.9 °F 84% 30.16 in 1.5 mi WNW 13.8 mph 27.6 mph 0.06 in Snow Light Snow
12:48 AM 26.1 °F 13.1 °F 21.9 °F 84% 30.15 in 2.0 mi WNW 17.3 mph 25.3 mph 0.07 in Snow Light Snow
12:55 AM 26.1 °F 12.7 °F 21.0 °F 81% 30.18 in 2.5 mi WNW 18.4 mph 28.8 mph 0.07 in Snow Light Snow
12:59 AM 26.1 °F 13.1 °F 21.0 °F 81% 30.15 in 3.0 mi WNW 17.3 mph 28.8 mph 0.00 in Snow Light Snow
1:05 AM 26.1 °F 12.7 °F 21.0 °F 81% 30.15 in 2.5 mi WNW 18.4 mph 26.5 mph 0.00 in Snow Light Snow
1:15 AM 26.1 °F 12.7 °F 21.0 °F 81% 30.15 in 1.8 mi WNW 18.4 mph 27.6 mph 0.00 in Snow Light Snow
1:27 AM 25.0 °F 12.6 °F 21.0 °F 85% 30.16 in 0.5 mi WNW 15.0 mph 25.3 mph 0.01 in Fog , Snow Snow
1:34 AM 26.1 °F 14.0 °F 19.9 °F 78% 30.16 in 2.0 mi WNW 15.0 mph 23.0 mph 0.01 in Snow Light Snow
1:41 AM 26.1 °F 13.6 °F 16.0 °F 66% 30.16 in 6.0 mi WNW 16.1 mph 31.1 mph 0.01 in Snow Light Snow
1:55 AM 26.1 °F 12.7 °F 15.1 °F 63% 30.19 in 8.0 mi WNW 18.4 mph 28.8 mph 0.01 in   Overcast
2:41 AM 24.1 °F 8.3 °F 17.1 °F 75% 30.16 in 0.8 mi NW 24.2 mph 33.4 mph 0.00 in Snow Light Snow
2:51 AM 23.0 °F 9.2 °F 19.4 °F 86% 30.16 in 0.2 mi WNW 17.3 mph 31.1 mph 0.01 in Fog , Snow Heavy Snow
2:55 AM 23.0 °F 9.6 °F 19.0 °F 85% 30.19 in 0.5 mi WNW 16.1 mph 31.1 mph 0.01 in Fog , Snow Snow
3:02 AM 24.1 °F 10.1 °F 17.1 °F 75% 30.16 in 2.5 mi NNW 18.4 mph 25.3 mph 0.00 in Snow Light Snow
3:08 AM 23.0 °F 9.2 °F 19.0 °F 85% 30.16 in 0.8 mi NNW 17.3 mph 27.6 mph 0.00 in Snow Light Snow
3:21 AM 24.1 °F 10.6 °F 17.1 °F 75% 30.15 in 2.5 mi NNW 17.3 mph 26.5 mph 0.00 in Snow Light Snow
3:28 AM 24.1 °F 10.6 °F 14.0 °F 65% 30.15 in 5.0 mi NNW 17.3 mph 26.5 mph 0.00 in Snow Light Snow
3:40 AM 24.1 °F 9.8 °F 14.0 °F 65% 30.15 in 5.0 mi NNW 19.6 mph 32.2 mph 0.00 in Snow Light Snow
3:55 AM 23.0 °F 8.3 °F 14.0 °F 68% 30.19 in 1.8 mi NW 19.6 mph 34.5 mph 0.00 in Snow Light Snow
4:12 AM 21.9 °F 6.5 °F 16.0 °F 78% 30.17 in 0.8 mi NW 20.7 mph 31.1 mph 0.00 in Snow Light Snow
4:26 AM 21.0 °F 6.2 °F 16.0 °F 81% 30.16 in 2.0 mi NW 18.4 mph 27.6 mph 0.01 in Snow Light Snow
4:32 AM 21.9 °F 8.7 °F 14.0 °F 72% 30.16 in 6.0 mi NW 15.0 mph 26.5 mph 0.01 in   Overcast
4:52 AM 21.2 °F 6.0 °F 14.0 °F 74% 30.17 in 1.8 mi NW 19.6 mph 29.9 mph 0.01 in Snow Light Snow
4:55 AM 21.0 °F 6.2 °F 15.1 °F 78% 30.20 in 1.2 mi WNW 18.4 mph 29.9 mph 0.01 in Snow Light Snow
5:09 AM 19.9 °F 5.7 °F 14.0 °F 78% 30.17 in 3.0 mi NW 16.1 mph 25.3 mph 0.00 in Snow Light Snow
5:25 AM 21.0 °F 5.7 °F 10.0 °F 63% 30.19 in 2.0 mi NNW 19.6 mph 34.5 mph 0.00 in Snow Light Snow
5:35 AM 21.0 °F 6.6 °F 9.0 °F 60% 30.19 in 5.0 mi NW 17.3 mph 34.5 mph 0.00 in Snow Light Snow
5:55 AM 19.0 °F 2.0 °F 9.0 °F 65% 30.22 in 4.0 mi NW 23.0 mph 40.3 mph 0.00 in Snow Light Snow
5:59 AM 19.0 °F 3.2 °F 10.9 °F 71% 30.20 in 1.8 mi NW 19.6 mph 33.4 mph 0.00 in Snow Light Snow
6:06 AM 18.0 °F 3.1 °F 14.0 °F 84% 30.20 in 0.8 mi NW 16.1 mph 28.8 mph 0.00 in Snow Light Snow
6:24 AM 18.0 °F 2.2 °F 12.0 °F 78% 30.21 in 2.0 mi NNW 18.4 mph 28.8 mph 0.00 in Snow Light Snow
6:37 AM 17.1 °F 2.0 °F 12.0 °F 81% 30.21 in 1.2 mi NNW 16.1 mph 26.5 mph 0.00 in Snow Light Snow
6:48 AM 17.1 °F 2.5 °F 9.0 °F 71% 30.22 in 3.0 mi NNW 15.0 mph 26.5 mph 0.00 in Snow Light Snow
6:55 AM 17.1 °F 1.5 °F 8.1 °F 68% 30.26 in 7.0 mi NNW 17.3 mph 31.1 mph 0.00 in   Overcast
7:16 AM 15.1 °F -1.6 °F 6.1 °F 68% 30.24 in 10.0 mi NNW 18.4 mph 27.6 mph 0.00 in   Partly Cloudy
7:55 AM 12.9 °F -3.4 °F 3.9 °F 67% 30.30 in 10.0 mi NNW 16.1 mph 27.6 mph 0.00 in   Partly Cloudy
8:55 AM 10.0 °F -7.6 °F -0.9 °F 61% 30.35 in 9.0 mi North 17.3 mph 28.8 mph N/A   Clear
9:55 AM 10.9 °F -4.7 °F -0.9 °F 59% 30.36 in 10.0 mi North 13.8 mph 24.2 mph N/A   Clear
10:55 AM 14.0 °F -1.4 °F -0.0 °F 54% 30.38 in 10.0 mi NNW 15.0 mph 20.7 mph N/A   Clear
11:55 AM 15.1 °F -2.0 °F 1.0 °F 54% 30.37 in 7.0 mi NNW 19.6 mph 39.1 mph N/A   Partly Cloudy
12:55 PM 16.0 °F 0.1 °F 1.9 °F 54% 30.36 in 10.0 mi NNW 17.3 mph 24.2 mph N/A   Scattered Clouds
1:55 PM 15.1 °F -0.6 °F 1.9 °F 56% 30.38 in 10.0 mi NNW 16.1 mph 26.5 mph N/A   Scattered Clouds
2:55 PM 16.0 °F 0.6 °F 3.9 °F 59% 30.40 in 10.0 mi North 16.1 mph 23.0 mph N/A   Mostly Cloudy
3:55 PM 14.0 °F -1.4 °F 3.0 °F 62% 30.41 in 10.0 mi North 15.0 mph 26.5 mph N/A   Partly Cloudy
4:55 PM 12.9 °F -0.2 °F 1.9 °F 62% 30.44 in 10.0 mi North 10.4 mph 20.7 mph N/A   Scattered Clouds
5:55 PM 12.9 °F -0.2 °F 1.9 °F 62% 30.46 in 10.0 mi North 10.4 mph - N/A   Overcast
6:18 PM 12.9 °F -0.9 °F 3.0 °F 65% 30.42 in 3.0 mi North 11.5 mph - 0.00 in Snow Light Snow
6:55 PM 12.0 °F -1.3 °F 1.9 °F 64% 30.46 in 8.0 mi NNE 10.4 mph 17.3 mph 0.00 in Snow Light Snow
7:55 PM 10.9 °F -1.8 °F -0.0 °F 61% 30.48 in 10.0 mi North 9.2 mph 19.6 mph 0.00 in   Overcast
8:55 PM 10.9 °F -1.8 °F -2.0 °F 56% 30.48 in 10.0 mi North 9.2 mph 20.7 mph N/A   Scattered Clouds
9:55 PM 10.9 °F -2.6 °F -2.0 °F 56% 30.48 in 10.0 mi North 10.4 mph 19.6 mph N/A   Overcast
10:55 PM 10.0 °F -1.9 °F -2.0 °F 58% 30.48 in 10.0 mi North 8.1 mph - N/A   Clear
11:55 PM 8.1 °F -6.2 °F -2.0 °F 64% 30.50 in 10.0 mi NNE 10.4 mph - N/A   Clear